Location: Glens Falls
(43.3090°N, 73.6440°W)
Time: 18:59:42
(UTC-04:00)

Daily predictions for brighter satellites

Satellite Brightness Start Highest point End
(mag) Time Altitude Azimuth Time Altitude Azimuth Time Altitude Azimuth
Cosmos 1300 3.7 21:07:14 10° NNE 21:10:40 30° ENE 21:14:05 10° SE
Cosmos 1500 Rocket 4.3 21:07:40 10° SSW 21:11:59 60° W 21:16:23 10° N
Envisat 3.1 21:07:01 10° SSE 21:12:02 64° ENE 21:17:04 10° N
ERBS 4.2 21:11:07 10° SSE 21:12:54 13° ESE 21:14:40 10° E
Tiangong 1 1.6 21:12:28 10° SW 21:15:22 37° SSE 21:18:16 10° E
CZ-4 SHROUD 4.0 21:13:15 10° SE 21:16:09 35° ENE 21:19:04 10° N
SL-16 R/B 4.4 21:13:51 10° NNE 21:16:29 13° NE 21:19:06 10° ENE
NOSS 3-1 (C) 3.5 21:12:06 10° SSW 21:17:46 54° ESE 21:24:02 10° NE
Cosmos 2333 Rocket 3.5 21:15:01 10° N 21:20:01 29° NE 21:25:00 10° ESE
Lacrosse 4 Rocket 4.1 21:21:34 10° NNE 21:22:32 11° NE 21:23:30 10° NE
Cosmos 2151 2.9 21:19:00 10° S 21:23:11 82° E 21:27:25 10° N
Delta 2 Rocket 4.3 21:22:31 10° WSW 21:25:34 24° S 21:28:16 11° SE
SL-23 DEB 4.4 21:20:28 10° WNW 21:26:03 60° SW 21:29:29 11° SE
ARGOS 4.1 21:22:20 10° SE 21:27:09 35° ENE 21:31:59 10° N
Cosmos 2112 Rocket 4.2 21:22:13 10° NNW 21:27:28 74° WSW 21:32:42 10° SSE
Cosmos 2058 3.0 21:23:48 10° S 21:27:47 54° E 21:31:48 10° NNE
Cosmos 2297 Rocket 3.8 21:26:33 10° SE 21:29:32 15° E 21:32:31 10° ENE
Cosmos 1937 Rocket 4.3 21:25:35 10° SSE 21:30:08 31° E 21:34:40 10° NE
Cosmos 2219 Rocket 2.8 21:26:46 10° NNW 21:32:07 43° ENE 21:37:10 11° SE
COSMOS 2428 2.7 21:26:29 10° NNW 21:32:12 83° ENE 21:37:54 10° SSE
Cosmos 1455 4.3 21:30:42 10° NE 21:32:44 14° ENE 21:34:46 10° ESE
Nimbus 7 Rocket 4.4 21:27:14 10° NNE 21:33:08 79° ESE 21:39:00 10° SSW
deb Chang Zheng 4 4.0 21:32:10 10° N 21:36:29 69° WNW 21:40:48 10° SSW
Cosmos 1726 2.4 21:37:06 10° N 21:40:49 53° E 21:44:08 13° SSE
Cosmos 2298 Rocket 4.1 21:36:05 10° S 21:41:19 64° ESE 21:46:37 10° NNE
Sich 1 3.3 21:41:01 10° S 21:45:18 52° E 21:49:35 10° NNE
PSLV R/B 3.3 21:44:56 10° S 21:47:56 73° WSW 21:50:59 10° NNW
Cosmos 1939 Rocket 4.0 21:45:14 10° SSW 21:48:56 39° W 21:52:36 10° NNW
CZ-4B R/B 3.7 21:44:20 10° NNE 21:49:30 54° E 21:54:33 10° S
Cosmos 2242 Rocket 3.9 21:46:26 10° N 21:50:51 53° ENE 21:54:27 15° SSE
Cosmos 1633 Rocket 3.2 21:47:24 10° S 21:51:42 57° E 21:56:00 10° NNE
Meteor 1-4 Rocket 2.8 21:50:32 10° N 21:54:14 55° ENE 21:56:51 17° SSE
Cosmos 1980 4.2 21:49:14 10° NNW 21:54:41 47° ENE 21:59:03 16° SE
SPOT 5 3.2 21:51:50 10° S 21:56:25 63° W 22:01:17 10° NNW
USA 245 1.9 21:59:33 25° SSE 22:00:45 66° ENE 22:02:59 10° N
Cosmos 2219 4.0 21:57:45 10° SW 22:03:25 57° WNW 22:09:05 10° NNE
Cosmos 292 Rocket 3.7 21:59:41 10° NNW 22:04:29 85° ENE 22:08:03 18° SSE
Cosmos 2237 Rocket 2.6 22:01:08 10° NNW 22:06:45 54° ENE 22:10:50 18° SE
MetOp-B 4.5 22:03:02 10° S 22:08:20 65° WSW 22:13:41 10° NNW
Cosmos 1805 Rocket 4.3 22:04:22 10° SSW 22:08:43 55° W 22:13:06 10° N
H-2A R/B 2.8 22:05:52 17° SE 22:09:35 42° ENE 22:14:41 10° N
Cosmos 2082 4.0 22:08:05 10° S 22:13:32 48° ESE 22:19:00 10° NE
Cosmos 1271 Rocket 2.7 22:10:33 10° N 22:14:25 88° WSW 22:17:01 20° S
DELTA 2 R/B(2) 4.1 22:13:06 10° WSW 22:14:48 35° S 22:14:48 35° S
Cosmos 2360 Rocket 4.2 22:11:49 10° NW 22:15:58 21° W 22:20:08 10° SSW
Cosmos 1898 Rocket 3.7 22:11:01 10° SSW 22:16:11 74° WNW 22:21:25 10° NNE
DELTA 2 DEB (DPAF) 4.4 22:14:15 21° SE 22:17:06 59° ENE 22:21:31 10° N
Landsat 7 4.0 22:14:43 21° SE 22:17:46 57° ENE 22:22:26 10° N
Cosmos 220 Rocket 4.0 22:14:45 10° SSW 22:19:09 86° ESE 22:23:37 10° NNE
CZ-4C R/B 3.2 22:18:51 27° SE 22:20:30 56° ENE 22:23:56 10° N
Iridium 2 3.6 22:19:28 21° S 22:21:53 71° E 22:25:44 10° N
SPOT 1/Viking Rocket 3.8 22:17:52 15° S 22:22:06 68° WSW 22:27:16 10° NNW
NOAA 11 4.2 22:18:02 17° SSE 22:22:15 86° WSW 22:27:46 10° NNW
NOSS 3-1 (A) 3.7 22:16:56 10° SW 22:22:51 74° NW 22:29:30 10° NE
Cosmos 1626 2.6 22:21:48 27° SSE 22:23:23 43° E 22:26:59 10° NNE
Cosmos 1346 3.3 22:22:52 35° SSE 22:23:46 50° E 22:26:44 10° NNE
Cosmos 1703 3.3 22:23:38 16° S 22:26:44 81° W 22:30:41 10° N
SL-14 R/B 4.5 22:24:10 10° SSW 22:27:57 42° WNW 22:31:48 10° N
YAOGAN 6 4.0 22:27:34 13° SSW 22:30:22 33° W 22:33:41 10° NNW
OTV 4 2.6 22:28:56 10° SW 22:29:40 15° SW 22:29:40 15° SW
Cosmos 1241 Rocket 4.4 22:26:22 10° SSW 22:32:32 75° ESE 22:38:48 10° NE
Terra 2.0 22:31:05 26° SE 22:33:38 57° ENE 22:38:18 10° N
SL-08 RB Rocket 3.9 22:32:55 21° S 22:35:47 68° WSW 22:40:18 10° NNW
Nadezhda 1 Rocket 4.0 22:37:08 10° N 22:43:15 85° W 22:47:24 22° S
Spot 4 4.1 22:42:22 29° SE 22:44:43 58° ENE 22:49:30 10° N
ATLAS 2AS CENTAUR R/B 2.9 22:37:38 10° SSW 22:45:02 70° ESE 22:53:04 10° NE
Cosmos 1470 Rocket 3.6 22:42:22 20° SSW 22:45:19 75° W 22:49:40 10° N
Cosmos 2227 Rocket 2.2 22:40:29 10° SSW 22:46:08 90° SE 22:51:51 10° NNE
Cosmos 1933 Rocket 3.7 22:43:16 20° SSW 22:46:20 77° W 22:50:49 10° N
Cosmos 1703 Rocket 4.3 22:45:09 10° N 22:49:16 39° ENE 22:50:40 30° ESE
ERBS 2.8 22:45:51 10° WSW 22:49:19 64° NW 22:52:48 10° NE
NOSS 0 Rocket 4.3 22:43:41 10° NW 22:49:42 56° WSW 22:53:27 23° S
SAR-Lupe-2 3.6 22:49:41 44° SE 22:50:40 69° ENE 22:54:15 10° N
Cosmos 1900 4.4 22:45:42 10° NNW 22:50:41 67° NE 22:52:57 31° SE
Tiangong 1 0.8 22:48:42 10° W 22:51:48 81° S 22:52:17 59° ESE
OAO 2 Rocket 4.1 22:48:01 10° WSW 22:52:47 34° S 22:53:39 32° SSE
ATLAS 3B R/B 2.8 22:48:22 10° NNW 22:55:27 73° NE 22:59:21 27° SE
Cosmos 1745 Rocket 4.4 22:52:10 10° SSW 22:58:11 60° W 23:04:18 10° N
SL-16 R/B 2.3 22:56:04 10° NNW 23:01:45 67° ENE 23:04:25 32° SE
Lacrosse 4 Rocket 1.7 22:57:43 10° NNW 23:02:08 64° ENE 23:03:42 38° SE
DMSP B5D2-2 4.0 22:58:33 10° NNE 23:03:48 86° ESE 23:06:47 26° SSW
Cosmos 2333 Rocket 2.9 22:59:00 10° NW 23:04:30 47° WSW 23:07:32 25° SSW
Cosmos 1709 Rocket 3.9 23:02:51 29° S 23:06:09 72° E 23:12:15 10° NNE
BREEZE-M TANK 3.9 22:46:52 10° WSW 23:06:54 86° SSE 23:11:06 10° ENE
ARGOS 4.4 23:03:30 15° SSW 23:07:22 33° W 23:12:13 10° NNW
Cosmos 2221 Rocket 3.8 23:03:28 10° N 23:08:00 60° E 23:09:20 41° SE
Cosmos 1455 3.1 23:05:05 10° NNW 23:08:41 41° W 23:10:08 28° SW
Aureole 2 Rocket 4.1 23:06:50 10° N 23:09:23 21° ENE 23:09:45 21° ENE
USA 238 DEB 4.4 23:03:07 10° NNW 23:09:57 49° NE 23:14:41 20° ESE
USA 238 4.4 23:03:14 10° NNW 23:10:03 49° NE 23:14:48 20° ESE
Cosmos 2297 Rocket 2.2 23:07:58 15° SSW 23:12:48 80° WNW 23:18:30 10° NNE
COS B Rocket 3.7 23:10:04 10° NNE 23:13:55 48° E 23:14:33 44° ESE
Cosmos 1933 3.2 23:10:26 10° N 23:14:31 83° E 23:15:26 53° SSE
COSMOS 2455 2.8 23:09:13 10° NNW 23:15:16 86° WSW 23:17:55 36° SSE
Cosmos 2219 Rocket 3.6 23:11:08 10° NW 23:15:50 28° WSW 23:18:54 18° SSW
NOSS 2-3 (E) 4.0 23:18:12 40° S 23:19:37 55° ESE 23:25:05 10° NE
Cosmos 1340 Rocket 4.5 23:29:25 21° E 23:29:25 21° E 23:32:00 10° NE
Cosmos 1603 4.2 23:30:22 10° NNW 23:35:54 50° ENE 23:38:14 32° ESE
Cosmos 2181 Rocket 4.1 23:30:28 10° NNW 23:36:52 74° W 23:39:48 34° S
Cosmos 2251 Rocket 4.1 23:32:09 10° N 23:37:20 49° ENE 23:39:06 35° ESE
H-2A R/B 3.8 23:38:43 10° NE 23:42:10 27° E 23:42:10 27° E
CZ-4C R/B 3.6 23:36:13 10° NNW 23:42:50 45° NE 23:48:28 17° ESE
SeaSat 1 2.8 23:43:30 38° ESE 23:45:07 57° ENE 23:49:58 10° NNW
Cosmos 2184 Rocket 4.1 23:43:46 41° SSE 23:45:53 63° E 23:51:59 10° NNE
NOSS 2-3 (C) 3.9 23:44:46 35° SSW 23:46:56 88° ESE 23:52:42 10° NE
H-2A R/B 3.6 23:46:30 19° SW 23:49:06 27° W 23:53:43 10° NW
ASTEX 1 4.1 23:45:35 10° NNE 23:50:08 38° E 23:50:45 36° ESE
Cosmos 2237 Rocket 3.8 23:46:01 10° NW 23:50:23 23° W 23:52:39 18° SW
Meteor 1-26 Rocket 4.2 23:45:44 10° NNW 23:51:22 75° W 23:53:14 44° S
FALCON 9 R/B 3.3 23:34:48 10° W 23:52:05 44° SSW 23:54:02 37° S
Cosmos 1733 Rocket 3.8 23:53:33 39° E 23:53:43 39° E 23:57:52 10° NNE
Cosmos 1869 Rocket 4.1 23:53:42 40° SW 23:54:57 55° W 23:59:22 10° N
